EW8277 Weather Reports


time (UTC)temp
F
wind
direction
speed
knots
gust
knots
rain 1hr
in
rain 24hr
in
rain mn
in
humidity
%
barometer
mb
20260510224555 86 233 0.0 0.0 0.00 0.00 0.00 34 1012.4
20260510223052 87 233 0.0 0.0 0.00 0.00 0.00 33 1012.3
20260510221553 87 233 0.0 0.0 0.00 0.00 0.00 34 1012.4
20260510220053 87 233 0.0 0.0 0.00 0.00 0.00 33 1012.4
20260510214533 87 233 0.0 0.0 0.00 0.00 0.00 32 1012.4
20260510213037 87 233 0.0 0.0 0.00 0.00 0.00 32 1012.3
20260510211516 88 233 0.0 0.0 0.00 0.00 0.00 34 1012.3
20260510210013 87 322 0.0 0.0 0.00 0.00 0.00 32 1012.2
20260510204554 86 317 0.0 0.0 0.00 0.00 0.00 35 1012.3
20260510203051 87 251 0.0 0.0 0.00 0.00 0.00 36 1012.4
20260510201530 87 296 0.0 0.0 0.00 0.00 0.00 34 1012.4
20260510200026 87 251 0.0 0.0 0.00 0.00 0.00 33 1012.4
20260510194504 87 307 0.0 0.0 0.00 0.00 0.00 35 1012.5
20260510193001 86 261 0.0 0.0 0.00 0.00 0.00 35 1012.6
20260510191537 86 261 0.0 0.0 0.00 0.00 0.00 35 1012.9
20260510190032 85 251 0.0 0.0 0.00 0.00 0.00 36 1012.9
20260510184507 85 251 0.0 0.0 0.00 0.00 0.00 35 1013.1
20260510183008 86 251 0.0 0.0 0.00 0.00 0.00 34 1013.3
20260510181619 85 256 0.0 0.0 0.00 0.00 0.00 36 1013.4
20260510180104 84 162 0.0 0.0 0.00 0.00 0.00 39 1013.5
20260510174550 83 171 0.0 0.0 0.00 0.00 0.00 40 1013.6
20260510173047 83 173 0.0 0.0 0.00 0.00 0.00 40 1013.6
20260510171544 82 176 0.0 0.0 0.00 0.00 0.00 41 1013.7
20260510170040 83 209 0.0 0.0 0.00 0.00 0.00 43 1013.8
20260510164549 84 209 0.0 0.0 0.00 0.00 0.00 42 1013.9
20260510163035 84 217 0.0 0.0 0.00 0.00 0.00 41 1014.1
20260510161529 82 146 0.0 0.0 0.00 0.00 0.00 43 1014.2
20260510160032 81 146 0.0 0.0 0.00 0.00 0.00 46 1014.2
20260510154521 80 146 0.0 0.0 0.00 0.00 0.00 49 1014.3
20260510153024 80 196 0.0 0.0 0.00 0.00 0.00 49 1014.6
20260510151533 79 196 0.0 0.0 0.00 0.00 0.00 51 1014.6
20260510150028 78 196 0.0 0.0 0.00 0.00 0.00 54 1014.5
20260510144526 76 196 0.0 0.0 0.00 0.00 0.00 54 1014.4
20260510143019 75 237 0.0 0.0 0.00 0.00 0.00 63 1014.4
20260510141557 73 237 0.0 0.0 0.00 0.00 0.00 65 1014.4
20260510140054 71 237 0.0 0.0 0.00 0.00 0.00 66 1014.4
20260510134531 68 237 0.0 0.0 0.00 0.00 0.00 56 1014.5
20260510133027 66 309 0.0 0.0 0.00 0.00 0.00 100 1014.5
20260510131506 64 309 0.0 0.0 0.00 0.00 0.00 100 1014.5
20260510130001 62 309 0.0 0.0 0.00 0.00 0.00 100 1014.4
20260510124604 61 309 0.0 0.0 0.00 0.00 0.00 100 1014.2
20260510123039 60 309 0.0 0.0 0.00 0.00 0.00 100 1014.0
20260510121521 59 309 0.0 0.0 0.00 0.00 0.00 100 1014.0
20260510120016 58 309 0.0 0.0 0.00 0.00 0.00 100 1013.7
20260510114514 57 309 0.0 0.0 0.00 0.00 0.00 100 1013.6
20260510113013 57 309 0.0 0.0 0.00 0.00 0.00 100 1013.5
20260510111503 57 309 0.0 0.0 0.00 0.00 0.00 100 1013.3
20260510110101 57 309 0.0 0.0 0.00 0.00 0.00 100 1013.0
20260510104607 57 309 0.0 0.0 0.00 0.00 0.00 100 1012.7
20260510103050 57 309 0.0 0.0 0.00 0.00 0.00 100 1012.5
20260510101545 57 309 0.0 0.0 0.00 0.00 0.00 100 1012.2
20260510100024 57 309 0.0 0.0 0.00 0.00 0.00 100 1012.0
20260510094522 58 309 0.0 0.0 0.00 0.00 0.00 100 1011.9
20260510093100 58 309 0.0 0.0 0.00 0.00 0.00 100 1011.7
20260510091602 58 309 0.0 0.0 0.00 0.00 0.00 100 1011.6
20260510090033 58 309 0.0 0.0 0.00 0.00 0.00 100 1011.5
20260510084530 58 309 0.0 0.0 0.00 0.00 0.00 100 1011.4
20260510083008 59 309 0.0 0.0 0.00 0.00 0.00 100 1011.1
20260510081511 59 309 0.0 0.0 0.00 0.00 0.00 100 1011.1
20260510080042 59 309 0.0 0.0 0.00 0.00 0.00 100 1011.0
20260510074538 59 309 0.0 0.0 0.00 0.00 0.00 100 1011.0
20260510073027 59 309 0.0 0.0 0.00 0.00 0.00 100 1010.9
20260510071516 59 309 0.0 0.0 0.00 0.00 0.00 100 1010.9
20260510070107 59 309 0.0 0.0 0.00 0.00 0.00 100 1011.0
20260510064608 59 309 0.0 0.0 0.00 0.00 0.00 100 1011.0
20260510063051 59 309 0.0 0.0 0.00 0.00 0.00 100 1010.9
20260510061550 59 309 0.0 0.0 0.00 0.00 0.00 100 1010.6
20260510060042 60 309 0.0 0.0 0.00 0.00 0.00 100 1010.9
20260510054536 60 309 0.0 0.0 0.00 0.00 0.00 100 1011.1
20260510053031 60 309 0.0 0.0 0.00 0.00 0.00 100 1011.2
20260510051527 60 309 0.0 0.0 0.00 0.00 0.00 100 1011.3
20260510050006 60 309 0.0 0.0 0.00 0.00 0.00 100 1011.5
20260510044502 61 309 0.0 0.0 0.00 0.00 0.00 100 1011.4
20260510043039 61 309 0.0 0.0 0.00 0.00 0.00 100 1011.5
20260510041538 61 309 0.0 0.0 0.00 0.00 0.00 100 1011.3
20260510040030 61 309 0.0 0.0 0.00 0.00 0.00 100 1011.4
20260510034526 62 309 0.0 0.0 0.00 0.00 0.00 100 1011.3
20260510033021 62 309 0.0 0.0 0.00 0.00 0.00 100 1011.2
20260510031517 62 309 0.0 0.0 0.00 0.00 0.00 100 1011.2
20260510030012 62 309 0.0 0.0 0.00 0.00 0.00 100 1011.1
20260510024508 63 309 0.0 0.0 0.00 0.00 0.00 100 1011.0
20260510023047 63 309 0.0 0.0 0.00 0.00 0.00 100 1011.0
20260510021543 64 309 0.0 0.0 0.00 0.00 0.00 100 1010.9
20260510020023 64 309 0.0 0.0 0.00 0.00 0.00 10 1010.9
20260510014525 65 309 0.0 0.0 0.00 0.00 0.00 19 1010.7
20260510013102 65 309 0.0 0.0 0.00 0.00 0.00 31 1010.3
20260510011553 66 309 0.0 0.0 0.00 0.00 0.00 42 1010.0
20260510010031 67 309 0.0 0.0 0.00 0.00 0.00 51 1009.8
20260510004527 68 309 0.0 0.0 0.00 0.00 0.00 58 1009.8
20260510003015 69 309 0.0 0.0 0.00 0.00 0.00 63 1009.8
20260510001511 70 309 0.0 0.0 0.00 0.00 0.00 66 1009.8
20260510000008 71 309 0.0 0.0 0.00 0.00 0.00 68 1009.5
20260509234517 72 309 0.0 0.0 0.00 0.00 0.00 69 1009.4
20260509233007 72 309 0.0 0.0 0.00 0.00 0.00 69 1009.0
20260509231501 72 305 0.0 0.0 0.00 0.00 0.00 69 1009.1
20260509230107 73 305 0.0 0.0 0.00 0.00 0.00 69 1008.9